Zurück zum Katalog

FENGYUN 1C DEB

AktivSSO
NORAD 30696·DEBRIS·🇨🇳 China

Gestartet May 10, 1999 von Taiyuan Satellite Launch Center

Loading…

Nächste Überflüge (nächste 24 Stunden)

TLE

AktuellSource: Space-Track

Epoche: Sep 14, 2026, 15:37 UTC

1 30696U 99025ARE 26257.65076402  .00001547  00000-0  42591-3 0  9992
2 30696  98.3603 308.0170 0086778  10.0321 144.7911 14.46139890 22777

Verfolge FENGYUN 1C DEB in Echtzeit mit AllMySat

Download on the App Store